Location: Ryley
(53.2913°N, 112.4267°W)
Time: 00:08:55
(UTC+00:00)

N. Korean satellite - Visible Passes

Search period start: 09 December 2021 00:00
Search period end: 19 December 2021 00:00
Orbit: 446 x 495 km, 97.3° (Epoch: 08 December)

Date Brightness Start Highest point End Pass type
(mag) Time Alt. Az. Time Alt. Az. Time Alt. Az.
09 Dec 9.0 00:32:20 10° SSW 00:35:18 26° W 00:38:15 10° NW visible
09 Dec 9.5 11:51:15 10° NE 11:53:19 15° E 11:55:22 10° SE visible
09 Dec 6.5 13:23:30 10° N 13:26:49 49° WNW 13:30:05 10° SSW visible
10 Dec 7.4 00:03:13 10° S 00:06:38 52° W 00:10:01 10° NNW visible
10 Dec 7.1 12:54:52 10° NNE 13:00:24 21° S 13:01:40 10° S visible
10 Dec 8.3 14:29:35 10° NNW 14:30:59 12° WNW 14:31:24 12° WNW visible
11 Dec 10.0 01:10:34 10° WSW 01:11:41 11° W 01:12:49 10° WNW visible
11 Dec 8.7 12:26:29 10° NNE 12:32:13 14° SSE 12:32:46 10° SSE visible
11 Dec 7.8 14:00:02 10° NNW 14:06:20 - WSW 14:01:56 20° NW visible
12 Dec 9.3 00:40:08 10° SW 00:42:52 21° W 00:45:34 10° NW visible
12 Dec 9.7 11:58:28 10° NE 12:03:50 - SE 11:58:34 10° NE visible
12 Dec 7.9 13:31:02 10° N 13:37:57 - SW 13:32:37 23° NNW visible
13 Dec 7.9 00:10:49 10° S 00:14:07 42° W 00:17:25 10° NNW visible
13 Dec 8.4 13:02:20 10° NNE 13:09:28 - SSW 13:03:24 19° NNE visible
14 Dec 9.2 12:33:50 10° NNE 12:40:56 - S 12:34:15 13° NNE visible
14 Dec 8.5 14:07:38 10° NNW 14:08:18 13° NNW 14:08:18 13° NNW visible
15 Dec 9.5 00:47:55 10° SW 00:50:21 18° W 00:52:47 10° NW visible
15 Dec9.812:12:21SSE12:12:21SSE12:05:07NEvisible
15 Dec 8.6 13:38:32 10° N 13:46:26 - SW 13:39:12 14° N visible
16 Dec 8.3 00:18:24 10° SSW 00:21:34 35° W 00:24:44 10° NNW visible
16 Dec10.411:43:44SE11:43:44SE11:36:03NEvisible
16 Dec 8.9 13:09:44 10° N 13:17:49 - SSW 13:10:07 13° N visible
16 Dec 6.7 23:49:29 10° S 23:52:54 75° WSW 23:56:19 10° NNW visible
17 Dec9.412:49:09S12:49:09S12:41:04NNEvisible
18 Dec 9.6 00:55:44 10° SW 00:57:48 15° W 00:59:52 10° NW visible
18 Dec9.912:20:29SSE12:20:29SSE12:12:02NNEvisible
18 Dec 8.9 13:46:00 10° N 13:46:06 11° N 13:46:06 11° N visible
